Powrót do katalogu

GALILEO 25

2C1

AktywnyNawigacjaMEO
NORAD 43564·PAYLOAD·🇪🇺 EU

Wystrzelony Jul 25, 2018 z Guiana Space Centre

Loading…

Następne Przeloty (najbliższe 24 godziny)

TLE

ŚwieżeSource: CelesTrak SupGP

Epoka: Sep 13, 2026, 23:59 UTC

1 43564C 18060A   26256.99979167  .00000000  00000+0  00000+0 0  2569
2 43564  57.1333 339.3823 0004499 270.2349 311.1260  1.70476568    19

Śledź GALILEO 25 w czasie rzeczywistym z AllMySat

Download on the App Store